Content
SEND FEEDBACK

Daily
Averages
Monthly
Summary
United Kingdom

NEWTOWNNARDS, NORTHERN IRELAND


Home > Europe > United Kingdom > Northern Ireland
Elevation: 112 feet     Latitude: 54 40N     Longitude: 005 35W

WEATHER
 
SELECT A DAY
Number of Records: 193,592;   Date Range: 7/1/96 - 10/24/14
 
SHARE

PRINT THIS DATA

[ ← Previous Day ]
WEATHER ALMANAC - DECEMBER 16, 2013
[ Next Day → ]
[ °C ]   °F
Weather ElementAverageHighLow
Temperature41.2 °F42.8 °F (6:50 am)39.2 °F (8:20 pm)
Dewpoint35.1 °F35.6 °F (6:50 am)33.8 °F (11:20 am)
Humidity79.1 %81 % (8:50 am)76 % (6:50 am)
Barometer29.83 in29.98 in (8:50 pm)29.62 in (6:50 am)
Wind Speed13.5 mph19.6 mph (1:20 pm)
Weather ElementAverage
Visibility6.2 mi
Wind DirectionSSW (211.3 °)

Weather ElementTotal
Precipitation---
Heating Degree Days24 (Base 65)
Averaged from 31 records on December 16, 2013
WEATHER CONDITIONS BREAKOUT
WIND DIRECTION BREAKOUT
WEATHER BY HOUR - DECEMBER 16, 2013
[ °C ]   °F
Local TimeTemperatureDewpointHumidityBarometerVisibilityWind DirectionWind SpeedGust SpeedPrecipitationEventsConditions
6:50 AM42.8 °F35.6 °F76 %29.62 in6.2 miSW (220°)16.1 mphScattered Clouds
7:20 AM42.8 °F35.6 °F76 %29.62 in6.2 miSW (220°)17.3 mphScattered Clouds
7:50 AM42.8 °F35.6 °F76 %29.65 in6.2 miSW (220°)13.8 mphScattered Clouds
8:20 AM42.8 °F35.6 °F76 %29.65 in6.2 miSW (220°)15.0 mphPartly Cloudy
8:50 AM41.0 °F35.6 °F81 %29.68 in6.2 miSW (220°)11.5 mphPartly Cloudy
9:20 AM41.0 °F35.6 °F81 %29.71 in6.2 miSW (220°)12.7 mphPartly Cloudy
9:50 AM41.0 °F35.6 °F81 %29.74 in6.2 miSSW (210°)10.4 mphPartly Cloudy
10:20 AM41.0 °F35.6 °F81 %29.74 in6.2 miSSW (210°)10.4 mphPartly Cloudy
10:50 AM41.0 °F35.6 °F81 %29.77 in6.2 miSSW (200°)10.4 mphPartly Cloudy
11:20 AM41.0 °F33.8 °F76 %29.77 in6.2 miSSW (210°)12.7 mphPartly Cloudy
11:50 AM41.0 °F33.8 °F76 %29.80 in6.2 miSSW (200°)11.5 mphPartly Cloudy
12:20 PM41.0 °F33.8 °F76 %29.80 in6.2 miSSW (210°)10.4 mphPartly Cloudy
12:50 PM42.8 °F35.6 °F76 %29.80 in6.2 miSSW (210°)15.0 mphPartly Cloudy
1:20 PM42.8 °F35.6 °F76 %29.80 in6.2 miSSW (210°)19.6 mphPartly Cloudy
1:50 PM42.8 °F35.6 °F76 %29.83 in6.2 miSSW (210°)16.1 mphPartly Cloudy
2:20 PM42.8 °F35.6 °F76 %29.83 in6.2 miSSW (200°)12.7 mphPartly Cloudy
2:50 PM41.0 °F35.6 °F81 %29.83 in6.2 miSSW (210°)13.8 mphPartly Cloudy
3:20 PM41.0 °F35.6 °F81 %29.86 in6.2 miSSW (210°)13.8 mphPartly Cloudy
3:50 PM41.0 °F33.8 °F76 %29.86 in6.2 miSSW (210°)12.7 mphPartly Cloudy
4:20 PM41.0 °F35.6 °F81 %29.89 in6.2 miSSW (200°)12.7 mphPartly Cloudy
4:50 PM41.0 °F35.6 °F81 %29.89 in6.2 miSSW (210°)12.7 mphPartly Cloudy
5:20 PM41.0 °F35.6 °F81 %29.89 in6.2 miSSW (210°)13.8 mphPartly Cloudy
5:50 PM41.0 °F35.6 °F81 %29.92 in6.2 miSW (220°)13.8 mph
6:20 PM41.0 °F35.6 °F81 %29.92 in6.2 miSW (220°)15.0 mph
6:50 PM41.0 °F35.6 °F81 %29.92 in6.2 miSW (220°)13.8 mphPartly Cloudy
7:20 PM41.0 °F35.6 °F81 %29.95 in6.2 miSW (220°)13.8 mphPartly Cloudy
7:50 PM41.0 °F35.6 °F81 %29.95 inSW (220°)13.8 mphClear
8:20 PM39.2 °F33.8 °F81 %29.95 inSSW (200°)15.0 mphClear
8:50 PM39.2 °F33.8 °F81 %29.98 inSSW (200°)12.7 mphClear
9:20 PM39.2 °F33.8 °F81 %29.98 inSSW (210°)13.8 mphClear
9:50 PM39.2 °F33.8 °F81 %29.98 inSSW (200°)11.5 mphClear
Hourly data recorded from EGAC, located miles away from Newtownnards, Northern Ireland







STORIES FROM OUR PARTNERS